Wind_Speed
18 19 21 23 27 31 33 33 39 39 36 35 35 33 31 28 24 21 17 14 13 13 12 13 14 14 7 3 10 8 6 6 5 7 9 6 5 4 4 4 4 7 6 7 10 9 10
22 23 25 26 26 26 27 32 36 39 41 40 38 37 35 31 28 22 18 15 14 13 13 12 10 8 1 7 7 8 6 8 10 13 7 7 6 6 3 4 5 2 6 7 6 9 6
21 25 28 29 32 32 30 31 31 35 41 42 41 40 36 33 31 24 19 14 14 12 13 11 8 2 4 17 6 10 5 6 10 14 5 8 4 4 4 2 3 5 7 6 9 8 7
25 25 26 30 33 35 35 36 35 36 38 43 42 42 36 36 30 26 20 14 14 10 14 11 3 3 8 10 12 16 19 16 11 14 6 4 3 2 2 4 2 3 2 5 1 3 2
25 25 28 30 31 33 36 38 38 38 37 39 42 42 38 34 34 27 18 12 13 10 14 6 3 3 10 8 8 10 19 11 17 14 9 2 6 4 3 2 3 0 8 5 6 3 1
25 24 25 26 27 31 33 37 38 39 38 38 40 38 40 35 33 24 16 11 4 6 1 5 4 4 7 4 3 1 4 12 4 9 3 4 3 5 4 7 8 4 5 4 5 3 9
26 26 26 31 34 39 38 36 37 39 40 38 39 40 29 37 31 24 17 3 2 2 7 10 5 5 3 6 6 5 6 10 5 4 8 5 7 13 18 12 9 6 7 13 11 12 5
31 31 34 39 44 48 50 45 40 37 39 37 38 37 35 37 34 24 15 4 3 2 8 18 19 16 15 2 4 6 13 7 6 9 6 4 13 13 8 11 9 8 10 11 9 12 5
27 33 36 37 43 47 46 46 46 36 35 34 36 36 37 36 29 22 18 12 5 5 1 9 9 10 9 18 11 9 14 7 7 10 11 11 4 10 9 7 8 10 10 8 10 9 7
31 37 36 38 44 46 45 50 37 31 32 31 34 35 43 37 18 15 5 14 11 5 3 8 6 8 7 9 10 22 17 8 5 15 8 9 11 7 6 7 9 11 11 14 13 4 5
32 34 34 40 45 48 45 37 22 26 27 29 36 47 47 39 24 12 8 15 13 0 2 1 4 3 8 14 1 9 8 3 11 8 7 7 6 9 14 14 10 8 7 11 10 7 3
31 27 29 37 46 43 36 21 20 21 25 32 39 51 46 21 17 20 26 23 14 2 6 3 5 6 8 8 3 5 12 3 3 5 3 3 1 4 5 4 7 1 3 3 1 3 6
25 22 26 33 42 40 25 20 20 21 25 36 49 52 38 33 15 34 31 12 5 5 5 5 5 8 7 7 3 3 11 9 6 6 4 1 1 1 1 5 3 1 4 3 3 4 4
21 17 23 24 30 30 21 20 21 21 34 51 50 37 24 17 42 37 26 3 4 5 6 3 2 8 4 4 1 2 8 7 4 3 3 6 3 1 3 2 2 2 3 4 5 4 1
19 17 13 19 21 20 20 20 25 37 52 52 39 26 19 32 34 33 6 3 7 6 3 2 3 4 1 3 4 4 3 3 2 4 4 4 3 1 4 3 1 2 2 2 1 1 4
16 14 8 6 25 30 27 32 43 52 56 50 22 11 10 30 33 13 3 4 5 2 2 2 4 1 4 1 3 3 3 1 4 1 1 5 3 2 2 1 7 2 2 2 1 4 6
14 7 9 6 6 11 26 33 35 29 22 29 18 4 8 19 13 2 3 5 3 1 2 2 3 3 5 3 3 2 3 2 2 3 2 2 1 2 3 1 2 2 1 1 1 3 4
17 10 6 9 12 15 16 19 21 19 22 10 5 3 18 22 4 2 4 4 4 3 3 1 3 6 4 6 6 4 3 2 2 3 4 2 3 2 1 5 3 4 4 3 3 3 3
19 15 13 11 13 17 20 21 21 24 22 12 3 3 11 7 3 3 5 3 2 1 3 2 4 3 2 4 4 4 4 3 3 3 6 5 2 3 2 1 1 3 4 4 3 2 7
22 18 14 10 12 15 17 20 27 26 17 5 4 4 2 1 1 7 7 7 7 2 2 4 3 2 3 3 2 5 4 2 2 2 6 3 3 4 4 3 3 2 4 5 4 4 8
24 18 15 11 15 16 17 23 26 19 11 1 1 2 4 7 4 5 4 6 6 4 3 3 3 2 3 3 3 3 3 2 4 3 3 2 5 5 5 5 4 9 11 13 15 15 12
21 17 15 17 15 15 15 18 22 15 8 1 3 4 2 8 4 7 4 4 6 4 2 2 6 4 3 3 2 4 5 2 3 2 2 0 3 2 4 9 10 15 16 17 18 20 19
23 19 17 19 14 15 13 14 16 15 9 2 1 0 3 6 5 4 4 4 6 7 5 4 8 4 6 3 2 2 2 3 3 5 4 4 5 3 3 1 8 13 8 8 9 11 14
26 21 21 20 14 12 11 12 13 18 15 2 2 2 3 3 3 3 6 7 8 3 6 3 4 3 1 2 1 1 0 4 3 7 5 5 4 2 2 2 4 2 4 4 9 1 8
23 20 20 20 13 10 10 8 11 20 16 13 3 1 3 3 5 10 11 12 10 7 5 4 3 2 1 2 1 1 1 2 1 2 8 9 6 2 2 3 8 2 4 5 4 0 8
22 20 18 18 14 11 9 10 13 10 12 12 4 3 3 6 1 4 8 6 5 3 3 3 2 2 4 2 2 1 1 1 1 4 7 7 8 5 2 3 3 2 12 10 8 4 9
22 22 17 15 15 9 9 11 13 10 10 8 4 5 6 4 2 1 3 4 4 4 3 1 0 1 2 2 2 1 1 1 1 1 2 5 4 8 5 3 3 10 15 9 4 4 7
21 21 17 14 14 9 8 7 8 7 6 4 7 5 5 3 2 4 2 4 3 2 3 4 2 1 2 3 2 2 0 2 1 2 1 3 5 3 3 3 4 14 3 5 3 7 7
20 19 18 16 14 11 8 7 5 6 6 5 7 18 17 6 3 9 15 8 3 6 5 2 2 2 2 3 2 2 1 1 2 1 4 2 3 2 2 2 3 5 7 8 6 6 8
Wind_Direction
304 301 294 284 280 277 266 272 277 276 273 273 272 274 269 265 261 258 263 273 286 295 305 315 322 328 346 296 248 209 222 206 214 194 181 160 169 162 203 212 180 234 252 241 241 257 257
301 301 299 295 290 287 283 276 266 271 271 271 271 268 270 262 254 252 257 269 280 289 301 310 317 326 305 267 264 236 232 217 219 196 188 166 194 199 217 231 210 213 228 258 256 247 241
299 297 298 298 296 290 285 286 278 264 266 267 267 268 269 264 251 245 248 257 274 293 298 304 301 276 248 246 222 229 224 227 211 189 165 198 192 190 159 250 276 275 284 279 238 237 246
298 300 302 305 299 296 290 288 283 279 267 259 259 259 266 260 245 238 236 245 269 286 293 297 280 198 253 258 272 262 246 250 222 206 187 180 164 203 210 302 323 283 240 273 277 184 266
300 300 304 302 299 296 292 286 281 277 270 257 253 250 259 251 241 230 230 234 260 288 287 263 225 221 261 300 261 271 235 208 220 220 241 167 160 191 170 201 284 266 265 243 287 236 241
292 298 303 304 304 304 301 291 278 272 266 259 247 247 243 245 229 222 217 213 265 303 212 151 248 261 254 244 232 236 222 192 169 165 118 182 166 179 152 191 236 213 232 243 253 271 286
287 291 297 302 302 305 308 298 285 276 270 260 248 239 226 223 220 204 195 143 168 106 232 202 205 252 265 287 275 211 169 155 169 147 184 199 202 205 206 197 222 247 261 270 267 266 294
288 288 295 297 298 300 302 301 297 273 273 259 240 236 228 215 208 189 181 191 139 166 264 228 247 247 258 323 298 240 160 164 171 190 153 170 236 216 208 201 210 228 251 266 276 272 208
299 301 299 297 298 301 300 297 298 268 264 249 233 226 196 178 173 170 172 179 136 59 344 283 215 234 225 203 221 234 179 166 176 186 192 212 213 191 183 182 207 236 238 252 264 303 278
302 300 301 302 305 305 300 298 282 263 256 233 216 209 180 165 151 158 186 201 161 271 350 259 214 254 190 150 236 211 196 162 183 200 184 235 231 191 175 206 210 253 216 236 255 273 279
302 305 306 309 307 304 300 291 254 255 235 221 206 177 174 188 144 158 149 145 159 263 239 124 165 150 165 186 233 207 168 109 181 171 167 218 180 185 220 233 212 236 207 214 229 233 269
305 303 311 311 306 304 295 261 247 233 220 205 185 170 162 143 126 137 133 127 102 149 238 293 158 173 160 231 286 117 180 49 142 138 245 219 223 167 182 188 183 199 201 169 142 217 249
300 300 324 311 307 304 271 247 238 226 211 197 171 169 168 162 146 144 141 126 95 216 356 174 184 177 184 175 251 131 160 163 163 171 192 302 122 77 68 149 159 162 147 222 219 199 259
291 285 334 324 311 307 247 238 227 213 194 163 152 145 140 145 143 147 122 120 165 197 243 213 172 143 165 119 305 92 142 167 58 112 140 180 196 321 6 77 161 181 194 212 237 213 152
284 274 301 1 23 318 239 229 214 175 148 140 133 117 123 141 145 146 120 172 195 210 250 218 129 147 129 118 133 95 76 111 81 32 184 168 184 327 49 9 324 148 150 43 294 304 264
273 265 264 343 53 65 108 122 133 139 143 144 122 98 139 150 153 163 110 187 210 197 279 236 173 329 142 113 126 119 133 23 117 100 21 191 156 340 306 119 30 73 142 144 116 239 246
253 237 242 233 142 73 80 93 104 113 123 136 97 102 163 148 143 153 170 197 224 32 210 292 125 117 99 72 46 83 84 93 91 68 98 128 8 157 250 130 139 55 166 159 220 200 251
225 207 194 186 162 150 155 139 138 139 130 122 103 91 176 172 139 192 167 152 340 21 354 274 92 66 65 35 12 50 98 99 138 139 110 45 100 184 273 336 221 159 165 138 178 210 240
213 208 207 187 166 150 144 145 148 153 140 128 81 99 190 219 159 142 152 160 214 267 32 34 58 67 97 125 169 152 109 26 129 112 156 169 161 148 118 202 106 149 141 122 109 202 231
191 186 191 191 188 173 165 159 155 145 151 115 125 136 73 105 271 166 145 190 159 162 113 77 99 147 124 130 15 134 119 66 37 100 99 102 178 228 214 125 111 188 207 205 186 226 255
174 180 180 198 182 165 165 162 165 170 171 134 102 179 163 183 216 185 179 162 136 129 72 53 74 72 138 128 114 114 105 104 41 96 61 137 206 211 249 270 225 250 251 245 242 243 245
170 167 168 168 149 161 163 161 172 179 198 317 137 138 99 162 145 168 207 152 136 110 82 91 125 93 92 111 81 159 129 164 171 138 141 61 156 170 249 244 253 268 263 253 255 260 261
162 157 156 162 152 154 157 161 176 182 200 249 140 250 128 150 145 139 183 143 139 124 45 66 128 107 88 93 88 116 169 181 163 174 162 160 160 165 235 201 302 280 252 219 230 259 258
159 159 159 154 152 158 159 159 177 195 209 283 220 155 99 136 126 149 127 116 130 91 124 70 79 96 132 328 349 69 189 249 236 237 184 157 154 156 264 279 236 54 74 267 280 125 348
151 152 153 152 159 160 162 166 177 196 235 231 257 153 125 97 118 106 105 112 90 72 77 85 51 51 347 59 99 110 154 173 135 193 229 214 184 179 243 222 295 329 29 333 336 83 18
153 146 143 142 156 157 153 148 148 191 224 212 201 175 101 124 31 105 108 117 116 101 74 77 45 34 73 79 87 108 105 351 265 164 24 174 196 196 162 244 261 9 324 310 274 229 23
152 146 145 143 146 141 123 131 148 187 194 186 119 158 95 98 20 47 107 123 109 95 100 108 79 93 46 88 83 106 142 321 333 340 138 120 158 205 216 268 293 349 321 307 198 17 20
146 139 143 141 135 121 100 111 140 158 163 183 86 112 105 92 34 27 96 119 99 115 144 160 115 31 76 85 142 153 156 24 347 84 230 166 165 179 193 219 277 359 355 28 64 57 51
141 142 136 134 131 117 103 111 137 164 154 132 90 88 99 80 101 79 72 64 89 151 124 68 124 135 161 116 113 120 116 325 290 102 360 96 332 114 351 78 65 25 42 33 63 91 78
Height
783 782 782 781 781 782 783 784 783 784 786 787 788 790 792 793 794 795 797 798 798 799 797 797 795 795 792 791 775 768 768 769 773 774 774 775 779 781 780 781 778 778 774 771 770 769 767
779 778 778 776 776 777 777 777 777 778 778 780 783 784 786 788 790 791 794 795 796 797 798 796 793 795 795 792 769 766 765 766 769 772 773 772 773 774 776 776 776 770 771 768 766 765 765
775 773 773 770 771 770 770 769 769 770 772 773 774 777 778 781 785 787 790 791 793 795 796 793 793 793 794 773 764 764 765 764 766 767 769 770 771 773 772 774 772 770 772 767 763 760 760
771 768 765 763 765 763 762 761 761 762 762 763 766 769 773 776 779 782 784 786 790 790 795 793 791 792 784 761 760 759 762 763 766 767 767 769 770 772 774 770 770 773 772 770 759 758 754
765 762 759 757 757 755 754 752 751 752 753 755 757 762 766 771 773 776 781 781 787 787 793 790 792 792 773 761 757 751 755 758 762 766 767 769 769 770 772 775 777 777 769 771 765 755 756
760 756 755 752 749 747 745 743 743 742 744 748 750 754 758 764 769 773 777 781 785 785 790 788 790 793 764 755 751 750 751 755 757 761 769 770 769 768 773 773 770 770 772 771 769 756 755
754 752 748 746 741 739 736 735 733 732 735 738 744 747 749 757 763 768 777 781 787 785 787 772 771 764 755 752 750 747 748 753 754 757 764 768 766 762 759 764 764 767 768 766 762 756 762
747 745 742 737 735 730 727 724 721 721 725 729 736 741 746 748 753 764 770 775 772 776 774 762 763 761 754 753 752 745 745 748 753 754 761 766 760 757 758 764 766 768 766 764 759 752 758
740 738 736 730 725 719 714 711 709 711 712 719 727 735 740 745 751 760 763 769 771 773 780 757 751 747 747 751 745 741 741 741 744 754 755 755 750 750 756 761 763 761 763 762 760 751 748
734 731 726 721 713 706 701 699 697 699 704 709 718 727 732 741 755 756 763 764 768 778 775 748 744 736 737 739 738 729 731 734 743 745 754 754 745 750 755 754 757 759 755 752 754 758 751
723 723 716 710 703 694 689 687 687 691 697 704 709 719 724 735 739 753 757 759 767 777 765 732 733 731 733 733 722 724 727 731 736 743 748 742 743 746 749 748 749 749 747 751 751 751 755
717 716 709 704 694 683 680 680 681 688 693 700 706 711 720 736 738 747 754 761 767 783 751 728 725 733 737 731 721 723 728 729 733 741 743 739 737 737 736 739 743 743 747 750 754 749 750
712 709 704 696 686 675 671 675 678 683 689 695 703 708 718 725 732 744 753 761 775 758 728 722 723 726 723 725 723 721 724 731 733 742 745 743 742 740 740 740 742 743 744 746 748 751 740
708 706 700 689 679 668 665 668 673 678 685 691 700 708 722 725 731 738 747 763 754 738 729 717 714 720 722 721 727 726 729 734 738 735 743 742 748 745 741 741 742 745 741 739 744 742 742
702 702 697 688 677 662 662 663 667 674 681 689 699 714 723 729 731 741 743 749 730 730 723 717 714 720 723 720 723 728 736 738 743 742 741 748 749 747 744 745 747 746 747 750 749 751 748
698 697 696 694 682 675 667 666 667 672 679 685 699 715 729 729 735 741 742 742 731 722 723 718 714 719 722 725 722 726 733 743 744 748 746 749 749 756 749 749 750 746 750 752 757 752 740
695 694 695 691 687 688 683 679 678 685 691 693 701 719 728 730 738 742 735 737 722 723 723 723 720 721 725 728 728 733 740 747 746 750 749 751 748 759 754 752 755 756 756 755 752 755 743
690 691 692 691 688 687 686 685 687 690 694 699 710 717 725 732 736 738 732 724 725 724 726 724 722 724 723 732 734 735 740 742 746 749 750 759 759 761 758 763 759 758 758 758 757 761 758
685 687 689 690 690 688 687 688 690 693 697 703 711 721 729 730 729 732 723 727 726 724 726 724 724 725 732 738 743 742 745 749 747 752 753 757 764 764 767 763 761 759 759 762 770 769 769
678 683 686 687 688 688 689 689 692 696 699 703 713 719 725 729 729 724 725 730 729 729 729 727 731 733 734 739 743 745 749 752 752 752 752 755 759 754 750 754 757 766 766 764 769 774 758
674 680 682 685 686 688 689 692 695 698 701 703 706 715 712 724 727 722 721 719 723 727 727 729 734 734 733 741 745 750 752 754 755 753 762 761 762 761 756 757 763 762 761 761 763 762 766
672 676 680 683 685 688 691 692 696 699 701 702 704 704 712 714 716 722 719 718 720 728 729 733 735 740 739 742 743 750 750 753 753 761 765 768 767 767 766 760 760 762 758 757 757 757 754
671 675 679 683 686 689 691 694 697 700 703 702 700 702 703 713 717 719 720 718 722 727 735 733 737 741 744 748 748 749 751 753 753 756 765 764 767 770 771 764 763 759 750 752 751 750 745
670 675 680 683 687 690 692 694 697 699 701 701 700 701 703 715 711 714 715 718 725 726 733 741 741 743 750 749 750 752 755 757 759 758 759 766 769 767 767 769 769 749 750 753 750 754 754
670 675 680 684 688 691 692 694 696 699 700 702 700 700 702 716 712 716 720 726 732 736 740 744 747 750 751 751 752 751 752 754 756 761 761 760 760 769 769 769 752 753 761 758 753 749 759
671 676 681 684 688 690 692 693 693 697 697 699 699 698 698 708 722 718 724 728 733 740 745 749 751 752 753 760 756 752 752 752 756 759 757 762 760 765 779 772 763 763 760 759 757 738 763
673 678 682 685 688 690 691 694 695 696 696 697 697 697 698 716 725 723 725 730 738 743 748 753 752 752 754 762 762 759 754 751 746 742 756 764 768 768 767 765 753 767 763 754 739 761 769
676 680 684 686 688 689 689 691 693 694 695 695 697 696 697 718 727 725 727 734 739 741 744 752 753 755 757 760 760 763 760 755 755 755 758 754 758 764 765 765 754 770 758 756 771 775 776
679 682 685 687 690 692 693 693 693 694 695 695 696 698 700 710 729 730 732 733 733 736 743 752 753 757 758 756 758 759 760 760 760 754 760 758 762 756 764 765 778 779 778 778 777 779 781